User: anonymous   Login
Location: ???????
(55.8860°N, 38.0932°E)
Time: 11:59:49
(UTC+00:00)
Language:

Cosmos 1743 - Orbit

View from above orbital plane
View from above orbital plane
View from above satellite
View from above satellite

Ground track
Ground track

The orbit data is extracted from the following two-line orbital elements,

1 16719U 86034A   24164.93987448  .00009051  00000-0  32986-3 0  9990
2 16719  82.5468   1.9405 0010688  51.8965 308.3236 15.27983318 82490
Epoch (UTC): 12 June 2024 22:33:25
Eccentricity: 0.0010688
inclination: 82.5468°
perigee height: 474 km
apogee height: 489 km
right ascension of ascending node: 1.9405°
argument of perigee: 51.8965°
revolutions per day: 15.27983318
mean anomaly at epoch: 308.3236°
orbit number at epoch: 8249

The dashed part of the orbit path shows where the satellite is in the earth's shadow,  

DLR